Year,Month,Day,Hour,Minute,Value (Times are PST for temperature in C)
2008,06,30,00,00,14.40
2008,06,30,00,01,14.50
2008,06,30,00,02,14.50
2008,06,30,00,03,14.60
2008,06,30,00,04,14.60
2008,06,30,00,05,14.70
2008,06,30,00,06,14.80
2008,06,30,00,07,14.80
2008,06,30,00,08,14.90
2008,06,30,00,09,14.90
2008,06,30,00,10,15.00
2008,06,30,00,11,15.00
2008,06,30,00,12,15.00
2008,06,30,00,13,15.00
2008,06,30,00,14,14.80
2008,06,30,00,15,14.70
2008,06,30,00,16,14.60
2008,06,30,00,17,14.40
2008,06,30,00,18,14.30
2008,06,30,00,19,14.20
2008,06,30,00,20,14.10
2008,06,30,00,21,14.10
2008,06,30,00,22,14.10
2008,06,30,00,23,14.10
2008,06,30,00,24,14.10
2008,06,30,00,25,14.10
2008,06,30,00,26,14.10
2008,06,30,00,27,14.10
2008,06,30,00,28,14.10
2008,06,30,00,29,14.10
2008,06,30,00,30,14.10
2008,06,30,00,31,14.10
2008,06,30,00,32,14.10
2008,06,30,00,33,14.10
2008,06,30,00,34,14.10
2008,06,30,00,35,14.10
2008,06,30,00,36,14.10
2008,06,30,00,37,14.10
2008,06,30,00,38,14.20
2008,06,30,00,39,14.20
2008,06,30,00,40,14.20
2008,06,30,00,41,14.00
2008,06,30,00,42,13.70
2008,06,30,00,43,13.60
2008,06,30,00,44,13.50
2008,06,30,00,45,13.40
2008,06,30,00,46,13.40
2008,06,30,00,47,13.30
2008,06,30,00,48,13.20
2008,06,30,00,49,13.10
2008,06,30,00,50,13.00
2008,06,30,00,51,13.00
2008,06,30,00,52,12.90
2008,06,30,00,53,12.90
2008,06,30,00,54,12.80
2008,06,30,00,55,12.80
2008,06,30,00,56,12.80
2008,06,30,00,57,12.80
2008,06,30,00,58,12.80
2008,06,30,00,59,12.80
2008,06,30,01,00,12.80
2008,06,30,01,01,12.80
2008,06,30,01,02,12.70
2008,06,30,01,03,12.70
2008,06,30,01,04,12.70
2008,06,30,01,05,12.70
2008,06,30,01,06,12.70
2008,06,30,01,07,12.60
2008,06,30,01,08,12.60
2008,06,30,01,09,12.60
2008,06,30,01,10,12.60
2008,06,30,01,11,12.60
2008,06,30,01,12,12.60
2008,06,30,01,13,12.60
2008,06,30,01,14,12.60
2008,06,30,01,15,12.60
2008,06,30,01,16,12.70
2008,06,30,01,17,12.70
2008,06,30,01,18,12.70
2008,06,30,01,19,12.70
2008,06,30,01,20,12.70
2008,06,30,01,21,12.80
2008,06,30,01,22,12.80
2008,06,30,01,23,12.80
2008,06,30,01,24,12.90
2008,06,30,01,25,12.90
2008,06,30,01,26,13.00
2008,06,30,01,27,13.00
2008,06,30,01,28,13.10
2008,06,30,01,29,13.10
2008,06,30,01,30,13.20
2008,06,30,01,31,13.20
2008,06,30,01,32,13.30
2008,06,30,01,33,13.30
2008,06,30,01,34,13.30
2008,06,30,01,35,13.40
2008,06,30,01,36,13.40
2008,06,30,01,37,13.50
2008,06,30,01,38,13.60
2008,06,30,01,39,13.60
2008,06,30,01,40,13.70
2008,06,30,01,41,13.70
2008,06,30,01,42,13.80
2008,06,30,01,43,13.80
2008,06,30,01,44,13.90
2008,06,30,01,45,13.90
2008,06,30,01,46,14.00
2008,06,30,01,47,14.00
2008,06,30,01,48,14.10
2008,06,30,01,49,14.10
2008,06,30,01,50,14.00
2008,06,30,01,51,13.90
2008,06,30,01,52,13.70
2008,06,30,01,53,13.60
2008,06,30,01,54,13.40
2008,06,30,01,55,13.30
2008,06,30,01,56,13.30
2008,06,30,01,57,13.20
2008,06,30,01,58,13.10
2008,06,30,01,59,13.10
2008,06,30,02,00,13.10
2008,06,30,02,01,13.00
2008,06,30,02,02,13.10
2008,06,30,02,03,13.10
2008,06,30,02,04,13.20
2008,06,30,02,05,13.20
2008,06,30,02,06,13.20
2008,06,30,02,07,13.30
2008,06,30,02,08,13.30
2008,06,30,02,09,13.30
2008,06,30,02,10,13.30
2008,06,30,02,11,13.40
2008,06,30,02,12,13.40
2008,06,30,02,13,13.40
2008,06,30,02,14,13.40
2008,06,30,02,15,13.50
2008,06,30,02,16,13.50
2008,06,30,02,17,13.50
2008,06,30,02,18,13.50
2008,06,30,02,19,13.50
2008,06,30,02,20,13.60
2008,06,30,02,21,13.60
2008,06,30,02,22,13.70
2008,06,30,02,23,13.70
2008,06,30,02,24,13.70
2008,06,30,02,25,13.80
2008,06,30,02,26,13.90
2008,06,30,02,27,13.90
2008,06,30,02,28,14.00
2008,06,30,02,29,14.00
2008,06,30,02,30,14.00
2008,06,30,02,31,14.10
2008,06,30,02,32,14.10
2008,06,30,02,33,14.10
2008,06,30,02,34,14.20
2008,06,30,02,35,14.20
2008,06,30,02,36,14.20
2008,06,30,02,37,14.20
2008,06,30,02,38,14.20
2008,06,30,02,39,14.20
2008,06,30,02,40,14.20
2008,06,30,02,41,14.20
2008,06,30,02,42,14.20
2008,06,30,02,43,14.30
2008,06,30,02,44,14.30
2008,06,30,02,45,14.40
2008,06,30,02,46,14.50
2008,06,30,02,47,14.60
2008,06,30,02,48,14.60
2008,06,30,02,49,14.70
2008,06,30,02,50,14.80
2008,06,30,02,51,14.80
2008,06,30,02,52,14.80
2008,06,30,02,53,14.90
2008,06,30,02,54,14.90
2008,06,30,02,55,15.00
2008,06,30,02,56,15.10
2008,06,30,02,57,15.10
2008,06,30,02,58,15.20
2008,06,30,02,59,15.30
2008,06,30,03,00,15.30
2008,06,30,03,01,15.30
2008,06,30,03,02,15.40
2008,06,30,03,03,15.40
2008,06,30,03,04,15.40
2008,06,30,03,05,15.40
2008,06,30,03,06,15.50
2008,06,30,03,07,15.50
2008,06,30,03,08,15.40
2008,06,30,03,09,15.40
2008,06,30,03,10,15.30
2008,06,30,03,11,15.20
2008,06,30,03,12,15.10
2008,06,30,03,13,15.00
2008,06,30,03,14,15.00
2008,06,30,03,15,14.90
2008,06,30,03,16,14.90
2008,06,30,03,17,14.90
2008,06,30,03,18,14.80
2008,06,30,03,19,14.80
2008,06,30,03,20,14.70
2008,06,30,03,21,14.70
2008,06,30,03,22,14.60
2008,06,30,03,23,14.50
2008,06,30,03,24,14.50
2008,06,30,03,25,14.40
2008,06,30,03,26,14.40
2008,06,30,03,27,14.40
2008,06,30,03,28,14.40
2008,06,30,03,29,14.40
2008,06,30,03,30,14.50
2008,06,30,03,31,14.60
2008,06,30,03,32,14.70
2008,06,30,03,33,14.80
2008,06,30,03,34,15.00
2008,06,30,03,35,15.10
2008,06,30,03,36,15.20
2008,06,30,03,37,15.20
2008,06,30,03,38,15.30
2008,06,30,03,39,15.30
2008,06,30,03,40,15.30
2008,06,30,03,41,15.30
2008,06,30,03,42,15.40
2008,06,30,03,43,15.50
2008,06,30,03,44,15.60
2008,06,30,03,45,15.70
2008,06,30,03,46,15.70
2008,06,30,03,47,15.70
2008,06,30,03,48,15.70
2008,06,30,03,49,15.60
2008,06,30,03,50,15.50
2008,06,30,03,51,15.40
2008,06,30,03,52,15.50
2008,06,30,03,53,15.50
2008,06,30,03,54,15.50
2008,06,30,03,55,15.50
2008,06,30,03,56,15.40
2008,06,30,03,57,15.40
2008,06,30,03,58,15.40
2008,06,30,03,59,15.40
2008,06,30,04,00,15.30
2008,06,30,04,01,15.10
2008,06,30,04,02,14.90
2008,06,30,04,03,14.80
2008,06,30,04,04,14.70
2008,06,30,04,05,14.70
2008,06,30,04,06,14.70
2008,06,30,04,07,14.70
2008,06,30,04,08,14.70
2008,06,30,04,09,14.70
2008,06,30,04,10,14.80
2008,06,30,04,11,14.80
2008,06,30,04,12,14.80
2008,06,30,04,13,14.90
2008,06,30,04,14,14.90
2008,06,30,04,15,15.00
2008,06,30,04,16,15.00
2008,06,30,04,17,15.10
2008,06,30,04,18,15.20
2008,06,30,04,19,15.20
2008,06,30,04,20,15.20
2008,06,30,04,21,15.30
2008,06,30,04,22,15.30
2008,06,30,04,23,15.30
2008,06,30,04,24,15.30
2008,06,30,04,25,15.40
2008,06,30,04,26,15.40
2008,06,30,04,27,15.40
2008,06,30,04,28,15.50
2008,06,30,04,29,15.50
2008,06,30,04,30,15.60
2008,06,30,04,31,15.60
2008,06,30,04,32,15.60
2008,06,30,04,33,15.70
2008,06,30,04,34,15.80
2008,06,30,04,35,15.80
2008,06,30,04,36,15.80
2008,06,30,04,37,15.80
2008,06,30,04,38,15.80
2008,06,30,04,39,15.80
2008,06,30,04,40,15.80
2008,06,30,04,41,15.80
2008,06,30,04,42,15.90
2008,06,30,04,43,15.90
2008,06,30,04,44,15.90
2008,06,30,04,45,16.00
2008,06,30,04,46,16.10
2008,06,30,04,47,16.10
2008,06,30,04,48,16.10
2008,06,30,04,49,16.10
2008,06,30,04,50,16.10
2008,06,30,04,51,16.10
2008,06,30,04,52,16.10
2008,06,30,04,53,16.10
2008,06,30,04,54,16.10
2008,06,30,04,55,16.10
2008,06,30,04,56,16.10
2008,06,30,04,57,16.10
2008,06,30,04,58,16.10
2008,06,30,04,59,16.10
2008,06,30,05,00,16.10
2008,06,30,05,01,16.10
2008,06,30,05,02,16.10
2008,06,30,05,03,16.10
2008,06,30,05,04,16.10
2008,06,30,05,05,16.10
2008,06,30,05,06,16.10
2008,06,30,05,07,16.10
2008,06,30,05,08,16.10
2008,06,30,05,09,16.10
2008,06,30,05,10,16.10
2008,06,30,05,11,16.10
2008,06,30,05,12,16.10
2008,06,30,05,13,16.10
2008,06,30,05,14,16.10
2008,06,30,05,15,16.10
2008,06,30,05,16,16.10
2008,06,30,05,17,16.10
2008,06,30,05,18,16.10
2008,06,30,05,19,16.20
2008,06,30,05,20,16.20
2008,06,30,05,21,16.20
2008,06,30,05,22,16.20
2008,06,30,05,23,16.30
2008,06,30,05,24,16.30
2008,06,30,05,25,16.40
2008,06,30,05,26,16.40
2008,06,30,05,27,16.50
2008,06,30,05,28,16.60
2008,06,30,05,29,16.70
2008,06,30,05,30,16.70
2008,06,30,05,31,16.70
2008,06,30,05,32,16.70
2008,06,30,05,33,16.70
2008,06,30,05,34,16.70
2008,06,30,05,35,16.70
2008,06,30,05,36,16.70
2008,06,30,05,37,16.70
2008,06,30,05,38,16.70
2008,06,30,05,39,16.70
2008,06,30,05,40,16.70
2008,06,30,05,41,16.70
2008,06,30,05,42,16.70
2008,06,30,05,43,16.70
2008,06,30,05,44,16.70
2008,06,30,05,45,16.70
2008,06,30,05,46,16.80
2008,06,30,05,47,16.80
2008,06,30,05,48,16.80
2008,06,30,05,49,16.80
2008,06,30,05,50,16.90
2008,06,30,05,51,16.90
2008,06,30,05,52,16.90
2008,06,30,05,53,16.90
2008,06,30,05,54,16.90
2008,06,30,05,55,16.90
2008,06,30,05,56,16.90
2008,06,30,05,57,16.80
2008,06,30,05,58,16.80
2008,06,30,05,59,16.80
2008,06,30,06,00,16.80
2008,06,30,06,01,16.70
2008,06,30,06,02,16.70
2008,06,30,06,03,16.70
2008,06,30,06,04,16.60
2008,06,30,06,05,16.50
2008,06,30,06,06,16.40
2008,06,30,06,07,16.40
2008,06,30,06,08,16.40
2008,06,30,06,09,16.40
2008,06,30,06,10,16.40
2008,06,30,06,11,16.40
2008,06,30,06,12,16.40
2008,06,30,06,13,16.40
2008,06,30,06,14,16.40
2008,06,30,06,15,16.40
2008,06,30,06,16,16.40
2008,06,30,06,17,16.40
2008,06,30,06,18,16.40
2008,06,30,06,19,16.40
2008,06,30,06,20,16.30
2008,06,30,06,21,16.30
2008,06,30,06,22,16.30
2008,06,30,06,23,16.30
2008,06,30,06,24,16.30
2008,06,30,06,25,16.30
2008,06,30,06,26,16.20
2008,06,30,06,27,16.20
2008,06,30,06,28,16.20
2008,06,30,06,29,16.10
2008,06,30,06,30,16.10
2008,06,30,06,31,16.10
2008,06,30,06,32,16.10
2008,06,30,06,33,16.10
2008,06,30,06,34,16.10
2008,06,30,06,35,16.10
2008,06,30,06,36,16.10
2008,06,30,06,37,16.10
2008,06,30,06,38,16.10
2008,06,30,06,39,16.10
2008,06,30,06,40,16.10
2008,06,30,06,41,16.10
2008,06,30,06,42,16.10
2008,06,30,06,43,16.10
2008,06,30,06,44,16.10
2008,06,30,06,45,16.10
2008,06,30,06,46,16.10
2008,06,30,06,47,16.00
2008,06,30,06,48,15.90
2008,06,30,06,49,15.90
2008,06,30,06,50,15.80
2008,06,30,06,51,15.80
2008,06,30,06,52,15.80
2008,06,30,06,53,15.80
2008,06,30,06,54,15.80
2008,06,30,06,55,15.80
2008,06,30,06,56,15.80
2008,06,30,06,57,15.80
2008,06,30,06,58,15.80
2008,06,30,06,59,15.90
2008,06,30,07,00,15.90
2008,06,30,07,01,16.00
2008,06,30,07,02,16.10
2008,06,30,07,03,16.10
2008,06,30,07,04,16.10
2008,06,30,07,05,16.20
2008,06,30,07,06,16.20
2008,06,30,07,07,16.30
2008,06,30,07,08,16.40
2008,06,30,07,09,16.50
2008,06,30,07,10,16.60
2008,06,30,07,11,16.70
2008,06,30,07,12,16.70
2008,06,30,07,13,16.70
2008,06,30,07,14,16.80
2008,06,30,07,15,16.80
2008,06,30,07,16,16.90
2008,06,30,07,17,16.90
2008,06,30,07,18,17.00
2008,06,30,07,19,17.00
2008,06,30,07,20,17.10
2008,06,30,07,21,17.10
2008,06,30,07,22,17.10
2008,06,30,07,23,17.00
2008,06,30,07,24,16.90
2008,06,30,07,25,16.70
2008,06,30,07,26,16.40
2008,06,30,07,27,16.20
2008,06,30,07,28,16.00
2008,06,30,07,29,15.60
2008,06,30,07,30,15.20
2008,06,30,07,31,14.90
2008,06,30,07,32,14.60
2008,06,30,07,33,14.40
2008,06,30,07,34,14.20
2008,06,30,07,35,14.00
2008,06,30,07,36,13.80
2008,06,30,07,37,13.70
2008,06,30,07,38,13.60
2008,06,30,07,39,13.40
2008,06,30,07,40,13.30
2008,06,30,07,41,13.10
2008,06,30,07,42,13.00
2008,06,30,07,43,13.00
2008,06,30,07,44,12.90
2008,06,30,07,45,12.90
2008,06,30,07,46,12.80
2008,06,30,07,47,12.80
2008,06,30,07,48,12.80
2008,06,30,07,49,12.80
2008,06,30,07,50,12.70
2008,06,30,07,51,12.70
2008,06,30,07,52,12.60
2008,06,30,07,53,12.50
2008,06,30,07,54,12.50
2008,06,30,07,55,12.40
2008,06,30,07,56,12.40
2008,06,30,07,57,12.30
2008,06,30,07,58,12.30
2008,06,30,07,59,12.30
2008,06,30,08,00,12.30
2008,06,30,08,01,12.30
2008,06,30,08,02,12.20
2008,06,30,08,03,12.20
2008,06,30,08,04,12.20
2008,06,30,08,05,12.20
2008,06,30,08,06,12.20
2008,06,30,08,07,12.20
2008,06,30,08,08,12.20
2008,06,30,08,09,12.20
2008,06,30,08,10,12.20
2008,06,30,08,11,12.20
2008,06,30,08,12,12.20
2008,06,30,08,13,12.20
2008,06,30,08,14,12.30
2008,06,30,08,15,12.30
2008,06,30,08,16,12.30
2008,06,30,08,17,12.30
2008,06,30,08,18,12.40
2008,06,30,08,19,12.40
2008,06,30,08,20,12.40
2008,06,30,08,21,12.40
2008,06,30,08,22,12.40
2008,06,30,08,23,12.50
2008,06,30,08,24,12.50
2008,06,30,08,25,12.60
2008,06,30,08,26,12.60
2008,06,30,08,27,12.70
2008,06,30,08,28,12.70
2008,06,30,08,29,12.70
2008,06,30,08,30,12.80
2008,06,30,08,31,12.80
2008,06,30,08,32,12.80
2008,06,30,08,33,12.80
2008,06,30,08,34,12.80
2008,06,30,08,35,12.80
2008,06,30,08,36,12.80
2008,06,30,08,37,12.80
2008,06,30,08,38,12.90
2008,06,30,08,39,12.90
2008,06,30,08,40,13.00
2008,06,30,08,41,13.00
2008,06,30,08,42,13.00
2008,06,30,08,43,13.00
2008,06,30,08,44,13.00
2008,06,30,08,45,13.10
2008,06,30,08,46,13.10
2008,06,30,08,47,13.20
2008,06,30,08,48,13.30
2008,06,30,08,49,13.30
2008,06,30,08,50,13.30
2008,06,30,08,51,13.40
2008,06,30,08,52,13.40
2008,06,30,08,53,13.50
2008,06,30,08,54,13.50
2008,06,30,08,55,13.60
2008,06,30,08,56,13.70
2008,06,30,08,57,13.70
2008,06,30,08,58,13.60
2008,06,30,08,59,13.60
2008,06,30,09,00,13.50
2008,06,30,09,01,13.50
2008,06,30,09,02,13.40
2008,06,30,09,03,13.40
2008,06,30,09,04,13.30
2008,06,30,09,05,13.30
2008,06,30,09,06,13.30
2008,06,30,09,07,13.30
2008,06,30,09,08,13.30
2008,06,30,09,09,13.30
2008,06,30,09,10,13.40
2008,06,30,09,11,13.60
2008,06,30,09,12,13.60
2008,06,30,09,13,13.70
2008,06,30,09,14,13.80
2008,06,30,09,15,13.90
2008,06,30,09,16,14.00
2008,06,30,09,17,14.10
2008,06,30,09,18,14.30
2008,06,30,09,19,14.40
2008,06,30,09,20,14.50
2008,06,30,09,21,14.50
2008,06,30,09,22,14.60
2008,06,30,09,23,14.70
2008,06,30,09,24,14.70
2008,06,30,09,25,14.70
2008,06,30,09,26,14.60
2008,06,30,09,27,14.60
2008,06,30,09,28,14.60
2008,06,30,09,29,14.70
2008,06,30,09,30,14.80
2008,06,30,09,31,14.90
2008,06,30,09,32,15.00
2008,06,30,09,33,15.10
2008,06,30,09,34,15.20
2008,06,30,09,35,15.30
2008,06,30,09,36,15.40
2008,06,30,09,37,15.50
2008,06,30,09,38,15.50
2008,06,30,09,39,15.50
2008,06,30,09,40,15.60
2008,06,30,09,41,15.70
2008,06,30,09,42,15.80
2008,06,30,09,43,15.80
2008,06,30,09,44,16.00
2008,06,30,09,45,16.10
2008,06,30,09,46,16.10
2008,06,30,09,47,16.10
2008,06,30,09,48,16.10
2008,06,30,09,49,16.00
2008,06,30,09,50,15.90
2008,06,30,09,51,15.90
2008,06,30,09,52,15.90
2008,06,30,09,53,16.10
2008,06,30,09,54,16.10
2008,06,30,09,55,16.10
2008,06,30,09,56,16.20
2008,06,30,09,57,16.20
2008,06,30,09,58,16.20
2008,06,30,09,59,16.10
2008,06,30,10,00,16.20
2008,06,30,10,01,16.20
2008,06,30,10,02,16.30
2008,06,30,10,03,16.30
2008,06,30,10,04,16.40
2008,06,30,10,05,16.40
2008,06,30,10,06,16.40
2008,06,30,10,07,16.50
2008,06,30,10,08,16.60
2008,06,30,10,09,16.70
2008,06,30,10,10,16.80
2008,06,30,10,11,16.90
2008,06,30,10,12,17.00
2008,06,30,10,13,17.10
2008,06,30,10,14,17.10
2008,06,30,10,15,17.10
2008,06,30,10,16,17.00
2008,06,30,10,17,17.00
2008,06,30,10,18,16.90
2008,06,30,10,19,17.00
2008,06,30,10,20,17.00
2008,06,30,10,21,17.00
2008,06,30,10,22,16.90
2008,06,30,10,23,16.90
2008,06,30,10,24,16.90
2008,06,30,10,25,16.90
2008,06,30,10,26,16.90
2008,06,30,10,27,16.90
2008,06,30,10,28,16.90
2008,06,30,10,29,16.90
2008,06,30,10,30,16.90
2008,06,30,10,31,16.90
2008,06,30,10,32,17.00
2008,06,30,10,33,17.00
2008,06,30,10,34,17.10
2008,06,30,10,35,17.10
2008,06,30,10,36,17.10
2008,06,30,10,37,17.20
2008,06,30,10,38,17.30
2008,06,30,10,39,17.50
2008,06,30,10,40,17.50
2008,06,30,10,41,17.60
2008,06,30,10,42,17.80
2008,06,30,10,43,17.90
2008,06,30,10,44,17.90
2008,06,30,10,45,18.00
2008,06,30,10,46,18.10
2008,06,30,10,47,18.10
2008,06,30,10,48,18.20
2008,06,30,10,49,18.20
2008,06,30,10,50,18.20
2008,06,30,10,51,18.20
2008,06,30,10,52,18.20
2008,06,30,10,53,18.20
2008,06,30,10,54,18.20
2008,06,30,10,55,18.30
2008,06,30,10,56,18.30
2008,06,30,10,57,18.40
2008,06,30,10,58,18.40
2008,06,30,10,59,18.50
2008,06,30,11,00,18.50
2008,06,30,11,01,18.60
2008,06,30,11,02,18.60
2008,06,30,11,03,18.70
2008,06,30,11,04,18.80
2008,06,30,11,05,18.90
2008,06,30,11,06,18.90
2008,06,30,11,07,18.90
2008,06,30,11,08,19.00
2008,06,30,11,09,19.10
2008,06,30,11,10,19.10
2008,06,30,11,11,19.10
2008,06,30,11,12,19.20
2008,06,30,11,13,19.20
2008,06,30,11,14,19.20
2008,06,30,11,15,19.30
2008,06,30,11,16,19.20
2008,06,30,11,17,19.20
2008,06,30,11,18,19.10
2008,06,30,11,19,19.10
2008,06,30,11,20,18.90
2008,06,30,11,21,18.90
2008,06,30,11,22,18.90
2008,06,30,11,23,18.90
2008,06,30,11,24,18.80
2008,06,30,11,25,18.80
2008,06,30,11,26,18.80
2008,06,30,11,27,18.90
2008,06,30,11,28,18.90
2008,06,30,11,29,18.90
2008,06,30,11,30,18.90
2008,06,30,11,31,18.90
2008,06,30,11,32,19.10
2008,06,30,11,33,19.10
2008,06,30,11,34,19.10
2008,06,30,11,35,19.10
2008,06,30,11,36,19.10
2008,06,30,11,37,19.00
2008,06,30,11,38,19.00
2008,06,30,11,39,19.10
2008,06,30,11,40,19.10
2008,06,30,11,41,19.00
2008,06,30,11,42,19.10
2008,06,30,11,43,19.10
2008,06,30,11,44,19.10
2008,06,30,11,45,19.10
2008,06,30,11,46,19.10
2008,06,30,11,47,19.10
2008,06,30,11,48,19.10
2008,06,30,11,49,18.90
2008,06,30,11,50,18.70
2008,06,30,11,51,18.70
2008,06,30,11,52,18.70
2008,06,30,11,53,18.80
2008,06,30,11,54,18.90
2008,06,30,11,55,18.90
2008,06,30,11,56,18.90
2008,06,30,11,57,18.90
2008,06,30,11,58,19.00
2008,06,30,11,59,19.10
2008,06,30,12,00,19.20
2008,06,30,12,01,19.40
2008,06,30,12,02,19.50
2008,06,30,12,03,19.60
2008,06,30,12,04,19.70
2008,06,30,12,05,19.80
2008,06,30,12,06,19.90
2008,06,30,12,07,20.10
2008,06,30,12,08,20.20
2008,06,30,12,09,20.30
2008,06,30,12,10,20.40
2008,06,30,12,11,20.50
2008,06,30,12,12,20.60
2008,06,30,12,13,20.70
2008,06,30,12,14,20.80
2008,06,30,12,15,20.90
2008,06,30,12,16,21.00
2008,06,30,12,17,21.10
2008,06,30,12,18,21.20
2008,06,30,12,19,21.30
2008,06,30,12,20,21.30
2008,06,30,12,21,21.40
2008,06,30,12,22,21.40
2008,06,30,12,23,21.40
2008,06,30,12,24,21.50
2008,06,30,12,25,21.60
2008,06,30,12,26,21.60
2008,06,30,12,27,21.50
2008,06,30,12,28,21.50
2008,06,30,12,29,21.60
2008,06,30,12,30,21.60
2008,06,30,12,31,21.50
2008,06,30,12,32,21.50
2008,06,30,12,33,21.40
2008,06,30,12,34,21.30
2008,06,30,12,35,21.30
2008,06,30,12,36,21.30
2008,06,30,12,37,21.20
2008,06,30,12,38,21.10
2008,06,30,12,39,21.10
2008,06,30,12,40,21.00
2008,06,30,12,41,20.90
2008,06,30,12,42,20.80
2008,06,30,12,43,20.70
2008,06,30,12,44,20.50
2008,06,30,12,45,20.30
2008,06,30,12,46,20.20
2008,06,30,12,47,20.00
2008,06,30,12,48,19.90
2008,06,30,12,49,19.90
2008,06,30,12,50,19.80
2008,06,30,12,51,19.80
2008,06,30,12,52,19.80
2008,06,30,12,53,19.80
2008,06,30,12,54,19.90
2008,06,30,12,55,19.90
2008,06,30,12,56,20.00
2008,06,30,12,57,20.10
2008,06,30,12,58,20.10
2008,06,30,12,59,20.20
2008,06,30,13,00,20.30
2008,06,30,13,01,20.40
2008,06,30,13,02,20.60
2008,06,30,13,03,20.70
2008,06,30,13,04,20.80
2008,06,30,13,05,20.90
2008,06,30,13,06,20.90
2008,06,30,13,07,20.90
2008,06,30,13,08,20.80
2008,06,30,13,09,20.80
2008,06,30,13,10,20.90
2008,06,30,13,11,20.90
2008,06,30,13,12,20.90
2008,06,30,13,13,20.90
2008,06,30,13,14,20.90
2008,06,30,13,15,20.90
2008,06,30,13,16,20.90
2008,06,30,13,17,21.00
2008,06,30,13,18,21.00
2008,06,30,13,19,21.00
2008,06,30,13,20,21.10
2008,06,30,13,21,21.10
2008,06,30,13,22,21.10
2008,06,30,13,23,21.20
2008,06,30,13,24,21.20
2008,06,30,13,25,21.30
2008,06,30,13,26,21.30
2008,06,30,13,27,21.50
2008,06,30,13,28,21.60
2008,06,30,13,29,21.70
2008,06,30,13,30,21.80
2008,06,30,13,31,21.90
2008,06,30,13,32,21.90
2008,06,30,13,33,21.90
2008,06,30,13,34,21.90
2008,06,30,13,35,22.00
2008,06,30,13,36,22.00
2008,06,30,13,37,22.10
2008,06,30,13,38,22.10
2008,06,30,13,39,22.20
2008,06,30,13,40,22.20
2008,06,30,13,41,22.20
2008,06,30,13,42,22.20
2008,06,30,13,43,22.20
2008,06,30,13,44,22.10
2008,06,30,13,45,22.00
2008,06,30,13,46,21.90
2008,06,30,13,47,21.90
2008,06,30,13,48,22.00
2008,06,30,13,49,22.00
2008,06,30,13,50,22.00
2008,06,30,13,51,22.10
2008,06,30,13,52,22.20
2008,06,30,13,53,22.30
2008,06,30,13,54,22.30
2008,06,30,13,55,22.30
2008,06,30,13,56,22.30
2008,06,30,13,57,22.30
2008,06,30,13,58,22.30
2008,06,30,13,59,22.30
2008,06,30,14,00,22.30
2008,06,30,14,01,22.40
2008,06,30,14,02,22.50
2008,06,30,14,03,22.50
2008,06,30,14,04,22.60
2008,06,30,14,05,22.70
2008,06,30,14,06,22.90
2008,06,30,14,07,23.00
2008,06,30,14,08,23.10
2008,06,30,14,09,23.30
2008,06,30,14,10,23.30
2008,06,30,14,11,23.50
2008,06,30,14,12,23.60
2008,06,30,14,13,23.70
2008,06,30,14,14,23.90
2008,06,30,14,15,24.00
2008,06,30,14,16,24.20
2008,06,30,14,17,24.40
2008,06,30,14,18,24.50
2008,06,30,14,19,24.70
2008,06,30,14,20,24.90
2008,06,30,14,21,25.00
2008,06,30,14,22,25.20
2008,06,30,14,23,25.40
2008,06,30,14,24,25.30
2008,06,30,14,25,25.20
2008,06,30,14,26,25.10
2008,06,30,14,27,25.10
2008,06,30,14,28,25.20
2008,06,30,14,29,25.40
2008,06,30,14,30,25.50
2008,06,30,14,31,25.60
2008,06,30,14,32,25.70
2008,06,30,14,33,25.80
2008,06,30,14,34,25.90
2008,06,30,14,35,26.00
2008,06,30,14,36,26.10
2008,06,30,14,37,26.10
2008,06,30,14,38,26.20
2008,06,30,14,39,26.30
2008,06,30,14,40,26.40
2008,06,30,14,41,26.40
2008,06,30,14,42,26.50
2008,06,30,14,43,26.60
2008,06,30,14,44,26.70
2008,06,30,14,45,26.70
2008,06,30,14,46,26.80
2008,06,30,14,47,26.90
2008,06,30,14,48,27.00
2008,06,30,14,49,27.20
2008,06,30,14,50,27.30
2008,06,30,14,51,27.30
2008,06,30,14,52,27.40
2008,06,30,14,53,27.30
2008,06,30,14,54,27.30
2008,06,30,14,55,27.30
2008,06,30,14,56,27.10
2008,06,30,14,57,26.90
2008,06,30,14,58,26.70
2008,06,30,14,59,26.60
2008,06,30,15,00,26.60
2008,06,30,15,01,26.60
2008,06,30,15,02,26.60
2008,06,30,15,03,26.60
2008,06,30,15,04,26.60
2008,06,30,15,05,26.40
2008,06,30,15,06,26.40
2008,06,30,15,07,26.30
2008,06,30,15,08,26.30
2008,06,30,15,09,26.30
2008,06,30,15,10,26.30
2008,06,30,15,11,26.20
2008,06,30,15,12,26.30
2008,06,30,15,13,26.30
2008,06,30,15,14,26.20
2008,06,30,15,15,26.20
2008,06,30,15,16,26.30
2008,06,30,15,17,26.30
2008,06,30,15,18,26.40
2008,06,30,15,19,26.50
2008,06,30,15,20,26.60
2008,06,30,15,21,26.60
2008,06,30,15,22,26.60
2008,06,30,15,23,26.60
2008,06,30,15,24,26.60
2008,06,30,15,25,26.80
2008,06,30,15,26,26.80
2008,06,30,15,27,26.80
2008,06,30,15,28,26.90
2008,06,30,15,29,27.00
2008,06,30,15,30,27.10
2008,06,30,15,31,27.20
2008,06,30,15,32,27.20
2008,06,30,15,33,27.20
2008,06,30,15,34,27.20
2008,06,30,15,35,27.20
2008,06,30,15,36,27.20
2008,06,30,15,37,27.20
2008,06,30,15,38,27.10
2008,06,30,15,39,27.00
2008,06,30,15,40,26.90
2008,06,30,15,41,26.90
2008,06,30,15,42,26.90
2008,06,30,15,43,26.90
2008,06,30,15,44,26.90
2008,06,30,15,45,26.90
2008,06,30,15,46,26.80
2008,06,30,15,47,26.80
2008,06,30,15,48,26.70
2008,06,30,15,49,26.70
2008,06,30,15,50,26.60
2008,06,30,15,51,26.60
2008,06,30,15,52,26.60
2008,06,30,15,53,26.60
2008,06,30,15,54,26.50
2008,06,30,15,55,26.30
2008,06,30,15,56,26.20
2008,06,30,15,57,26.20
2008,06,30,15,58,26.20
2008,06,30,15,59,26.00
2008,06,30,16,00,26.00
2008,06,30,16,01,26.00
2008,06,30,16,02,25.90
2008,06,30,16,03,25.90
2008,06,30,16,04,25.90
2008,06,30,16,05,25.80
2008,06,30,16,06,25.60
2008,06,30,16,07,25.60
2008,06,30,16,08,25.50
2008,06,30,16,09,25.40
2008,06,30,16,10,25.40
2008,06,30,16,11,25.40
2008,06,30,16,12,25.40
2008,06,30,16,13,25.40
2008,06,30,16,14,25.50
2008,06,30,16,15,25.40
2008,06,30,16,16,25.40
2008,06,30,16,17,25.40
2008,06,30,16,18,25.40
2008,06,30,16,19,25.40
2008,06,30,16,20,25.40
2008,06,30,16,21,25.40
2008,06,30,16,22,25.40
2008,06,30,16,23,25.40
2008,06,30,16,24,25.50
2008,06,30,16,25,25.50
2008,06,30,16,26,25.50
2008,06,30,16,27,25.60
2008,06,30,16,28,25.70
2008,06,30,16,29,25.70
2008,06,30,16,30,25.70
2008,06,30,16,31,25.70
2008,06,30,16,32,25.70
2008,06,30,16,33,25.80
2008,06,30,16,34,25.90
2008,06,30,16,35,26.00
2008,06,30,16,36,26.10
2008,06,30,16,37,26.20
2008,06,30,16,38,26.40
2008,06,30,16,39,26.40
2008,06,30,16,40,26.50
2008,06,30,16,41,26.60
2008,06,30,16,42,26.60
2008,06,30,16,43,26.60
2008,06,30,16,44,26.60
2008,06,30,16,45,26.60
2008,06,30,16,46,26.60
2008,06,30,16,47,26.60
2008,06,30,16,48,26.50
2008,06,30,16,49,26.40
2008,06,30,16,50,26.40
2008,06,30,16,51,26.40
2008,06,30,16,52,26.30
2008,06,30,16,53,26.30
2008,06,30,16,54,26.30
2008,06,30,16,55,26.40
2008,06,30,16,56,26.40
2008,06,30,16,57,26.20
2008,06,30,16,58,26.10
2008,06,30,16,59,26.10
2008,06,30,17,00,26.20
2008,06,30,17,01,26.20
2008,06,30,17,02,26.20
2008,06,30,17,03,26.30
2008,06,30,17,04,26.30
2008,06,30,17,05,26.30
2008,06,30,17,06,26.30
2008,06,30,17,07,26.30
2008,06,30,17,08,26.20
2008,06,30,17,09,26.20
2008,06,30,17,10,26.20
2008,06,30,17,11,26.20
2008,06,30,17,12,26.20
2008,06,30,17,13,26.20
2008,06,30,17,14,26.20
2008,06,30,17,15,26.20
2008,06,30,17,16,26.20
2008,06,30,17,17,26.20
2008,06,30,17,18,26.20
2008,06,30,17,19,26.30